TimeMDT,TemperatureF,Dew PointF,Humidity,Sea Level PressureIn,VisibilityMPH,Wind Direction,Wind SpeedMPH,Gust SpeedMPH,PrecipitationIn,Events,Conditions,WindDirDegrees,DateUTC
12:15 AM,57.2,32.0,38,29.86,10.0,SW,3.5,-,N/A,,Clear,220,2013-05-26 06:15:00
12:35 AM,57.2,33.8,41,29.86,10.0,SW,4.6,-,N/A,,Clear,230,2013-05-26 06:35:00
12:55 AM,55.4,32.0,41,29.87,10.0,West,5.8,-,N/A,,Clear,270,2013-05-26 06:55:00
1:15 AM,53.6,32.0,44,29.87,10.0,WNW,10.4,-,N/A,,Partly Cloudy,290,2013-05-26 07:15:00
1:35 AM,51.8,30.2,44,29.88,10.0,WNW,8.1,-,N/A,,Partly Cloudy,300,2013-05-26 07:35:00
1:55 AM,51.8,32.0,47,29.88,10.0,WNW,8.1,-,N/A,,Partly Cloudy,290,2013-05-26 07:55:00
2:15 AM,51.8,33.8,50,29.88,10.0,WNW,8.1,-,N/A,,Clear,300,2013-05-26 08:15:00
2:35 AM,50.0,33.8,54,29.87,10.0,West,6.9,-,N/A,,Clear,280,2013-05-26 08:35:00
2:55 AM,51.8,33.8,50,29.88,10.0,WNW,9.2,-,N/A,,Scattered Clouds,290,2013-05-26 08:55:00
3:15 AM,51.8,33.8,50,29.88,10.0,WNW,8.1,-,N/A,,Mostly Cloudy,290,2013-05-26 09:15:00
3:35 AM,51.8,33.8,50,29.88,10.0,WNW,9.2,-,N/A,,Mostly Cloudy,290,2013-05-26 09:35:00
3:55 AM,53.6,33.8,47,29.88,10.0,WNW,8.1,-,N/A,,Mostly Cloudy,300,2013-05-26 09:55:00
4:15 AM,53.6,33.8,47,29.89,10.0,NW,9.2,-,N/A,,Overcast,310,2013-05-26 10:15:00
4:35 AM,53.6,35.6,51,29.89,10.0,NW,6.9,-,N/A,,Overcast,320,2013-05-26 10:35:00
4:55 AM,53.6,33.8,47,29.89,10.0,WNW,6.9,-,N/A,,Overcast,300,2013-05-26 10:55:00
5:15 AM,53.6,33.8,47,29.89,10.0,West,8.1,-,N/A,,Overcast,280,2013-05-26 11:15:00
5:35 AM,53.6,35.6,51,29.89,10.0,West,6.9,-,N/A,,Overcast,270,2013-05-26 11:35:00
5:55 AM,53.6,35.6,51,29.90,10.0,West,9.2,-,N/A,,Mostly Cloudy,270,2013-05-26 11:55:00
6:15 AM,53.6,33.8,47,29.90,10.0,WNW,9.2,-,N/A,,Partly Cloudy,300,2013-05-26 12:15:00
6:35 AM,53.6,33.8,47,29.90,10.0,NW,9.2,-,N/A,,Mostly Cloudy,310,2013-05-26 12:35:00
6:55 AM,53.6,35.6,51,29.90,10.0,NNW,6.9,-,N/A,,Scattered Clouds,340,2013-05-26 12:55:00
7:15 AM,55.4,35.6,47,29.91,10.0,NNW,6.9,-,N/A,,Scattered Clouds,330,2013-05-26 13:15:00
7:35 AM,55.4,37.4,51,29.91,10.0,North,4.6,-,N/A,,Scattered Clouds,350,2013-05-26 13:35:00
7:55 AM,55.4,37.4,51,29.91,10.0,NW,6.9,-,N/A,,Mostly Cloudy,310,2013-05-26 13:55:00
8:15 AM,57.2,35.6,44,29.92,10.0,NW,11.5,-,N/A,,Mostly Cloudy,320,2013-05-26 14:15:00
8:35 AM,57.2,37.4,48,29.92,10.0,NW,11.5,-,N/A,,Overcast,310,2013-05-26 14:35:00
8:55 AM,55.4,37.4,51,29.91,10.0,North,12.7,-,N/A,,Mostly Cloudy,360,2013-05-26 14:55:00
9:15 AM,55.4,39.2,54,29.93,10.0,West,10.4,-,N/A,,Overcast,280,2013-05-26 15:15:00
9:35 AM,55.4,41.0,58,29.91,10.0,NE,10.4,-,N/A,,Overcast,50,2013-05-26 15:35:00
9:55 AM,57.2,42.8,59,29.92,10.0,ENE,3.5,-,N/A,,Overcast,60,2013-05-26 15:55:00
10:15 AM,57.2,41.0,55,29.93,10.0,Calm,Calm,-,N/A,,Overcast,0,2013-05-26 16:15:00
10:35 AM,60.8,42.8,52,29.93,10.0,South,6.9,-,N/A,,Mostly Cloudy,170,2013-05-26 16:35:00
10:55 AM,62.6,44.6,52,29.93,10.0,SSW,5.8,-,N/A,,Scattered Clouds,200,2013-05-26 16:55:00
11:15 AM,64.4,41.0,42,29.93,10.0,South,6.9,-,N/A,,Partly Cloudy,180,2013-05-26 17:15:00
11:35 AM,64.4,41.0,42,29.92,10.0,SE,8.1,-,N/A,,Clear,130,2013-05-26 17:35:00
11:55 AM,66.2,39.2,37,29.92,10.0,East,3.5,-,N/A,,Clear,100,2013-05-26 17:55:00
12:15 PM,66.2,39.2,37,29.91,10.0,Calm,Calm,-,N/A,,Clear,0,2013-05-26 18:15:00
12:35 PM,68.0,39.2,35,29.91,10.0,Calm,Calm,-,N/A,,Clear,0,2013-05-26 18:35:00
12:55 PM,68.0,37.4,33,29.90,10.0,Calm,Calm,-,N/A,,Clear,0,2013-05-26 18:55:00
1:15 PM,66.2,37.4,35,29.90,10.0,ESE,3.5,-,N/A,,Clear,120,2013-05-26 19:15:00
1:35 PM,68.0,39.2,35,29.89,10.0,NNE,5.8,-,N/A,,Scattered Clouds,30,2013-05-26 19:35:00
1:55 PM,69.8,39.2,33,29.88,10.0,East,4.6,-,N/A,,Partly Cloudy,90,2013-05-26 19:55:00
2:15 PM,66.2,37.4,35,29.89,10.0,SW,8.1,-,N/A,Thunderstorm,Partly Cloudy,230,2013-05-26 20:15:00
2:35 PM,64.4,39.2,40,29.92,10.0,SW,18.4,28.8,N/A,Thunderstorm,Thunderstorm,230,2013-05-26 20:35:00
2:55 PM,57.2,42.8,59,29.93,9.0,SW,6.9,41.4,0.06,Thunderstorm,Overcast,230,2013-05-26 20:55:00
3:15 PM,60.8,42.8,52,29.91,10.0,NW,12.7,-,0.01,,Mostly Cloudy,310,2013-05-26 21:15:00
3:35 PM,62.6,42.8,48,29.91,10.0,NNW,6.9,-,0.01,,Partly Cloudy,330,2013-05-26 21:35:00
3:55 PM,64.4,41.0,42,29.92,10.0,Calm,Calm,-,0.01,,Partly Cloudy,0,2013-05-26 21:55:00
4:15 PM,64.4,39.2,40,29.92,10.0,Calm,Calm,-,N/A,,Partly Cloudy,0,2013-05-26 22:15:00
4:35 PM,64.4,44.6,49,29.92,10.0,SSE,3.5,-,N/A,,Mostly Cloudy,160,2013-05-26 22:35:00
4:55 PM,66.2,41.0,40,29.91,10.0,SW,10.4,-,N/A,,Mostly Cloudy,230,2013-05-26 22:55:00
5:15 PM,66.2,39.2,37,29.92,10.0,West,15.0,21.9,N/A,,Clear,260,2013-05-26 23:15:00
5:35 PM,66.2,39.2,37,29.93,10.0,WNW,12.7,-,N/A,,Partly Cloudy,300,2013-05-26 23:35:00
5:55 PM,66.2,37.4,35,29.93,10.0,WSW,11.5,19.6,N/A,,Partly Cloudy,250,2013-05-26 23:55:00
6:35 PM,62.6,41.0,45,29.93,10.0,NNE,8.1,-,0.03,,Overcast,20,2013-05-27 00:35:00
6:55 PM,60.8,41.0,48,29.93,10.0,North,3.5,-,0.03,,Overcast,360,2013-05-27 00:55:00
7:15 PM,62.6,41.0,45,29.93,10.0,WNW,4.6,-,N/A,,Overcast,300,2013-05-27 01:15:00
7:35 PM,60.8,42.8,52,29.94,10.0,SE,8.1,-,N/A,,Overcast,130,2013-05-27 01:35:00
7:55 PM,60.8,42.8,52,29.94,10.0,SSE,6.9,-,N/A,,Overcast,150,2013-05-27 01:55:00
8:15 PM,59.0,42.8,55,29.94,10.0,SE,9.2,-,N/A,,Overcast,140,2013-05-27 02:15:00
8:35 PM,59.0,42.8,55,29.94,10.0,SE,8.1,-,N/A,,Overcast,140,2013-05-27 02:35:00
8:55 PM,57.2,42.8,59,29.95,10.0,SE,4.6,-,N/A,,Mostly Cloudy,130,2013-05-27 02:55:00
9:15 PM,57.2,44.6,63,29.95,10.0,NNW,10.4,-,N/A,,Overcast,330,2013-05-27 03:15:00
9:35 PM,55.4,42.8,63,29.95,10.0,ENE,9.2,-,N/A,,Overcast,60,2013-05-27 03:35:00
9:55 PM,55.4,42.8,63,29.96,10.0,East,5.8,-,N/A,,Overcast,100,2013-05-27 03:55:00
10:15 PM,55.4,42.8,63,29.98,10.0,WNW,19.6,23.0,N/A,,Overcast,290,2013-05-27 04:15:00
10:35 PM,55.4,41.0,58,30.00,10.0,West,13.8,26.5,N/A,Thunderstorm,Thunderstorm,270,2013-05-27 04:35:00
10:55 PM,51.8,42.8,71,30.01,10.0,WSW,10.4,-,0.01,,Overcast,250,2013-05-27 04:55:00
11:15 PM,51.8,42.8,71,30.02,8.0,WNW,9.2,-,0.01,,Overcast,300,2013-05-27 05:15:00
11:35 PM,51.8,42.8,71,30.01,10.0,Calm,Calm,-,0.01,,Overcast,0,2013-05-27 05:35:00
11:55 PM,51.8,42.8,71,30.01,10.0,Calm,Calm,-,0.03,,Overcast,0,2013-05-27 05:55:00